EA7CL-13 Weather Reports


time (UTC)temp
C
wind
direction
speed
KPH
gust
KPH
rain 1hr
cm
rain 24hr
cm
rain mn
cm
humidity
%
barometer
mb
20260510233217 17 315 1.6 3.2 0.00 0.00 0.00 58 1016.7
20260510232218 18 315 1.6 3.2 0.00 0.00 0.00 58 1016.8
20260510231258 18 0.0 1.6 0.00 0.00 0.00 57 1016.8
20260510230218 18 23 1.6 4.8 0.00 0.00 0.00 58 1016.9
20260510225217 18 0 1.6 4.8 0.00 0.00 0.00 57 1017.0
20260510224217 18 0.0 1.6 0.00 0.00 0.00 57 1017.0
20260510223217 18 0.0 3.2 0.00 0.00 0.00 57 1017.0
20260510222217 18 270 1.6 3.2 0.00 0.00 0.00 57 1017.0
20260510221216 18 315 3.2 4.8 0.00 0.00 0.00 57 1017.1
20260510220237 18 0.0 0.0 0.00 0.00 0.00 57 1017.0
20260510215216 18 0.0 3.2 0.00 0.00 0.00 57 1017.0
20260510214216 18 248 1.6 3.2 0.00 0.00 0.00 57 1017.0
20260510213215 18 0.0 1.6 0.00 0.00 0.00 57 1017.0
20260510212216 18 293 1.6 3.2 0.00 0.00 0.00 58 1016.9
20260510211216 18 23 4.8 8.0 0.00 0.00 0.00 59 1017.0
20260510210215 18 23 4.8 9.7 0.00 0.00 0.00 60 1017.1
20260510205215 18 0 3.2 4.8 0.00 0.00 0.00 62 1017.0
20260510204216 18 0 3.2 6.4 0.00 0.00 0.00 65 1016.9
20260510203215 18 338 1.6 3.2 0.00 0.00 0.00 67 1016.9
20260510202217 18 0.0 1.6 0.00 0.00 0.00 68 1016.8
20260510201215 18 0 4.8 6.4 0.00 0.00 0.00 68 1016.8
20260510200215 19 0.0 1.6 0.00 0.00 0.00 68 1016.5
20260510195235 19 0.0 1.6 0.00 0.00 0.00 68 1016.4
20260510194219 19 0.0 1.6 0.00 0.00 0.00 69 1016.3
20260510193218 19 0.0 1.6 0.00 0.00 0.00 70 1016.3
20260510192217 19 23 3.2 3.2 0.00 0.00 0.00 70 1016.3
20260510191217 19 0 3.2 6.4 0.00 0.00 0.00 70 1016.3
20260510190218 19 0 1.6 3.2 0.00 0.00 0.00 69 1016.2
20260510185217 19 23 4.8 6.4 0.00 0.00 0.00 69 1016.1
20260510184217 19 45 4.8 6.4 0.00 0.00 0.00 69 1016.1
20260510183217 19 68 4.8 6.4 0.00 0.00 0.00 69 1016.1
20260510182240 20 23 1.6 3.2 0.00 0.00 0.00 69 1016.2
20260510181218 20 45 3.2 6.4 0.00 0.00 0.00 69 1016.1
20260510180217 20 45 8.0 9.7 0.00 0.00 0.00 68 1016.2
20260510175218 20 45 4.8 6.4 0.00 0.00 0.00 67 1016.1
20260510174237 21 135 4.8 6.4 0.00 0.00 0.00 65 1016.1
20260510173218 21 0.0 0.0 0.00 0.00 0.00 66 1015.9
20260510172218 21 135 1.6 6.4 0.00 0.00 0.00 65 1016.0
20260510171218 21 158 1.6 6.4 0.00 0.00 0.00 65 1015.9
20260510170217 21 158 4.8 8.0 0.00 0.00 0.00 66 1015.8
20260510165217 20 113 4.8 11.3 0.00 0.03 0.00 66 1015.8
20260510164218 20 90 8.0 9.7 0.00 0.03 0.00 66 1016.0
20260510163217 20 158 6.4 12.9 0.00 0.03 0.00 67 1016.2
20260510162217 20 135 6.4 14.5 0.00 0.03 0.00 68 1016.2
20260510161222 20 68 8.0 14.5 0.00 0.03 0.00 68 1016.1
20260510160259 20 90 12.9 22.5 0.00 0.03 0.00 67 1015.8
20260510155218 20 90 11.3 17.7 0.00 0.03 0.00 67 1015.7
20260510154217 21 90 14.5 24.1 0.00 0.03 0.00 65 1015.7
20260510153218 22 68 9.7 16.1 0.00 0.03 0.00 65 1015.9
20260510152448 -17 302 0.0 0.0 0.00 0.00 0.00
20260510152217 22 113 8.0 12.9 0.00 0.05 0.00 61 1015.9
20260510152048 -17 302 0.0 0.0 0.00 0.00 0.00
20260510151648 -17 302 0.0 0.0 0.00 0.00 0.00
20260510151217 23 158 8.0 19.3 0.00 0.08 0.00 61 1015.9
20260510151121 -17 7 0.0 0.0 0.00 0.00 0.00
20260510150723 -17 296 1.6 0.0 0.00 0.00 0.00
20260510150218 22 90 3.2 6.4 0.00 0.13 0.00 62 1016.1
20260510145217 21 225 8.0 16.1 0.00 0.13 0.00 59 1016.2
20260510144218 20 248 4.8 12.9 0.00 0.13 0.00 61 1016.3
20260510143216 20 0.0 3.2 0.00 0.13 0.00 70 1016.5
20260510142216 20 90 8.0 17.7 0.00 0.13 0.00 69 1016.6
20260510141217 21 135 4.8 6.4 0.00 0.13 0.00 69 1016.9
20260510140217 21 180 9.7 16.1 0.00 0.13 0.00 69 1017.0
20260510135216 21 113 6.4 16.1 0.00 0.13 0.00 70 1017.1
20260510134216 20 135 4.8 11.3 0.00 0.13 0.00 71 1017.1
20260510133216 20 135 4.8 9.7 0.00 0.13 0.00 73 1017.2
20260510132238 20 158 3.2 8.0 0.00 0.13 0.00 75 1017.1
20260510131217 19 180 8.0 11.3 0.00 0.15 0.00 76 1017.3
20260510130216 18 203 4.8 4.8 0.00 0.18 0.00 75 1017.4
20260510125217 19 203 4.8 6.4 0.00 0.18 0.00 74 1017.1
20260510124217 19 203 4.8 6.4 0.00 0.18 0.00 74 1017.1
20260510123216 19 0.0 1.6 0.00 0.18 0.00 73 1017.0
20260510122216 19 113 1.6 4.8 0.00 0.18 0.00 72 1017.0
20260510121217 20 135 1.6 3.2 0.00 0.18 0.00 72 1017.3
20260510120216 20 135 1.6 3.2 0.00 0.18 0.00 73 1017.2
20260510115216 20 68 4.8 8.0 0.00 0.18 0.00 71 1017.4
20260510114216 20 180 1.6 4.8 0.00 0.18 0.00 71 1017.4
20260510113217 20 113 6.4 11.3 0.00 0.18 0.00 70 1017.4
20260510112216 20 180 11.3 17.7 0.00 0.18 0.00 67 1017.5
20260510111217 21 135 4.8 8.0 0.00 0.18 0.00 66 1017.5
20260510110216 21 90 3.2 9.7 0.00 0.18 0.00 66 1017.6
20260510105216 21 135 3.2 6.4 0.00 0.18 0.00 66 1017.6
20260510104217 21 180 3.2 8.0 0.00 0.23 0.00 67 1017.6
20260510103216 20 68 6.4 11.3 0.00 0.23 0.00 68 1017.6
20260510102216 20 90 9.7 16.1 0.00 0.23 0.00 68 1017.7
20260510101216 20 158 6.4 11.3 0.00 0.36 0.00 70 1017.6
20260510100216 19 90 8.0 11.3 0.00 0.41 0.00 69 1017.5
20260510095216 19 90 1.6 4.8 0.00 0.71 0.00 69 1017.6
20260510094216 19 113 6.4 9.7 0.00 0.76 0.00 69 1017.6
20260510093216 19 135 1.6 3.2 0.00 0.84 0.00 69 1017.6
20260510092216 19 158 3.2 6.4 0.00 0.89 0.00 68 1017.4
20260510091236 19 0.0 1.6 0.00 0.89 0.00 68 1017.5
20260510090216 19 158 3.2 6.4 0.00 0.89 0.00 68 1017.4
20260510085216 19 203 3.2 6.4 0.00 0.89 0.00 68 1017.4
20260510084237 19 90 4.8 6.4 0.00 0.89 0.00 68 1017.3
20260510083217 19 135 1.6 4.8 0.00 0.89 0.00 70 1017.2
20260510082215 18 158 1.6 3.2 0.00 0.89 0.00 71 1017.2
20260510081216 18 68 1.6 3.2 0.00 0.89 0.00 71 1017.3
20260510080258 18 158 1.6 3.2 0.00 0.89 0.00 73 1017.2
20260510075215 18 0.0 1.6 0.00 0.89 0.00 74 1017.3
20260510074215 17 0.0 1.6 0.00 0.89 0.00 74 1017.1
20260510073216 17 158 4.8 6.4 0.00 0.89 0.00 75 1017.0
20260510072215 17 0.0 1.6 0.00 0.89 0.00 78 1017.0
20260510071216 17 90 1.6 3.2 0.00 0.89 0.00 78 1016.9
20260510070216 17 68 6.4 8.0 0.00 0.89 0.00 78 1016.8
20260510065217 16 68 8.0 9.7 0.00 0.89 0.00 80 1016.8
20260510064215 16 0.0 1.6 0.00 0.89 0.00 81 1016.9
20260510063215 16 45 4.8 8.0 0.00 0.89 0.00 81 1016.9
20260510062235 16 68 4.8 8.0 0.00 0.89 0.00 82 1016.8
20260510061215 16 68 3.2 4.8 0.00 0.89 0.00 83 1016.7
20260510060216 15 68 3.2 4.8 0.00 0.94 0.00 83 1016.6
20260510055237 15 45 4.8 4.8 0.00 0.94 0.00 83 1016.7
20260510054219 15 45 1.6 3.2 0.00 0.94 0.00 83 1016.6
20260510053218 15 45 1.6 4.8 0.00 0.94 0.00 82 1016.5
20260510052239 15 45 1.6 3.2 0.00 0.94 0.00 82 1016.4
20260510051218 15 45 4.8 8.0 0.00 0.94 0.00 82 1016.2
20260510050257 15 45 1.6 3.2 0.00 0.94 0.00 82 1016.3
20260510045217 15 45 1.6 4.8 0.00 0.94 0.00 82 1016.2
20260510044217 15 45 1.6 4.8 0.00 0.94 0.00 82 1016.1
20260510043218 15 68 4.8 6.4 0.00 0.94 0.00 82 1016.2
20260510042257 15 45 4.8 6.4 0.00 0.94 0.00 82 1016.1
20260510041238 15 0.0 1.6 0.00 0.94 0.00 82 1016.1
20260510040217 15 68 4.8 6.4 0.00 0.94 0.00 82 1016.1
20260510035218 15 45 3.2 4.8 0.00 0.94 0.00 81 1016.1
20260510034217 15 45 3.2 3.2 0.00 0.94 0.00 81 1016.2
20260510033237 15 45 1.6 3.2 0.00 0.94 0.00 81 1016.2
20260510032217 16 0.0 1.6 0.00 0.94 0.00 81 1016.2
20260510031237 16 68 3.2 4.8 0.00 0.94 0.00 81 1016.2
20260510030257 16 68 6.4 8.0 0.00 0.94 0.00 81 1016.2
20260510025218 15 45 4.8 6.4 0.00 0.94 0.00 81 1016.3
20260510024217 15 45 4.8 6.4 0.00 0.94 0.00 81 1016.3
20260510023217 15 45 4.8 8.0 0.00 0.94 0.00 81 1016.3
20260510022217 15 45 1.6 3.2 0.00 0.94 0.00 82 1016.5
20260510021217 15 68 6.4 8.0 0.00 0.94 0.00 82 1016.3
20260510020240 15 45 4.8 6.4 0.00 0.94 0.00 82 1016.4
20260510015237 15 45 3.2 4.8 0.00 0.94 0.00 82 1016.3
20260510014216 15 68 4.8 6.4 0.00 0.94 0.00 82 1016.3
20260510013237 15 45 8.0 14.5 0.00 0.94 0.00 83 1016.4
20260510012216 15 68 4.8 8.0 0.00 0.94 0.00 83 1016.5
20260510011217 15 45 4.8 6.4 0.00 0.94 0.00 83 1016.7
20260510010216 15 45 6.4 9.7 0.00 0.94 0.00 83 1016.7
20260510005216 15 0.0 0.0 0.00 0.94 0.00 83 1016.8
20260510004216 15 68 3.2 4.8 0.00 0.94 0.00 83 1016.9
20260510003218 15 45 6.4 8.0 0.00 0.94 0.00 83 1016.9
20260510002218 15 45 4.8 6.4 0.00 0.94 0.00 83 1017.0
20260510001218 15 0.0 0.0 0.00 0.94 0.00 83 1017.1
20260510000219 15 68 3.2 4.8 0.00 0.94 0.00 83 1017.1
20260509235216 15 68 1.6 3.2 0.00 0.94 0.00 83 1017.1
20260509234217 16 0.0 0.0 0.00 0.94 0.00 83 1017.1